User: anonymous   Login
Location: Unspecified
(51.3762°N, 0.0000°E)
Time: 11:37:32
(UTC+00:00)
Language:

Tiangong 2 - Orbit

View from above orbital plane
View from above orbital plane
View from above satellite
View from above satellite

Ground track
Ground track

The orbit data is extracted from the following two-line orbital elements,

1 41765U 16057A   19171.10769676  .00002311  00000-0  30369-4 0  9995
2 41765  42.7842 309.3617 0009095 285.7850  41.3067 15.61757325157498
Epoch (UTC): 20 June 2019 02:35:05
Eccentricity: 0.0009095
inclination: 42.7842°
perigee height: 376 km
apogee height: 389 km
right ascension of ascending node: 309.3617°
argument of perigee: 285.7850°
revolutions per day: 15.61757325
mean anomaly at epoch: 41.3067°
orbit number at epoch: 15749

The dashed part of the orbit path shows where the satellite is in the earth's shadow,  

DLR